Location: White Mills Observatory
(37.5374°N, 86.0303°W)
Time: 09:20:23
(UTC-04:00)

Amateur Radio Satellites - All Passes

Search period start: 20 April 2014 08:50
Search period end: 21 April 2014 08:50
Location: White Mills Observatory, 37.5374°N, 86.0303°W

Satellite Date Start Highest point End Downlink Frequencies (MHz)
Time Altitude Azimuth
Sapphire 20 Apr 09:12:35 09:14:56 13° 44° (NE) 09:17:16 437.095 MHz 1200 baud AX-25 AFSK
SO-67 20 Apr 09:15:35 09:19:02 58° 284° (WNW) 09:22:28 435.3500 MHz FM
JAS-2 20 Apr 09:19:29 09:24:51 62° 286° (WNW) 09:30:47 435.800 - 435.900 CW/SSB, 435.910 FM
PANSAT 20 Apr 09:51:16 09:53:58 18° 171° (S) 09:56:41 not established
PCSat 20 Apr 09:55:47 10:00:28 29° 53° (NE) 10:05:07 145.825 MHz
RS-15 20 Apr 09:55:54 10:05:43 34° 319° (NW) 10:15:23 29.354 - 29.394 USB, Beacon 29.352 USB
KITSAT 1 20 Apr 10:19:09 10:21:41 12° 27° (NNE) 10:24:13 435.175 FM
HO-68 20 Apr 10:22:26 10:29:09 41° 99° (E) 10:35:48 435.675 MHz FM
Sapphire 20 Apr 10:53:47 10:59:13 81° 63° (ENE) 11:04:38 437.095 MHz 1200 baud AX-25 AFSK
Saudisat 1A 20 Apr 11:05:50 11:09:41 29° 113° (ESE) 11:13:32 436.775 MHz
FUNcube-1 20 Apr 11:27:37 11:30:50 20° 95° (E) 11:34:05 145.950 - 145.970 MHz USB
PANSAT 20 Apr 11:30:43 11:33:38 21° 184° (S) 11:36:34 not established
Oscar 11 20 Apr 11:34:13 11:38:35 84° 103° (ESE) 11:42:57 145.825 FM, Beacon 2401.500 USB
PCSat 20 Apr 11:38:58 11:43:56 38° 250° (WSW) 11:48:52 145.825 MHz
HO-68 20 Apr 12:10:18 12:16:41 36° 295° (WNW) 12:23:05 435.675 MHz FM
KITSAT 1 20 Apr 12:12:01 12:19:39 42° 52° (NE) 12:27:11 435.175 FM
RS-15 20 Apr 12:17:22 12:23:01 15° 353° (N) 12:28:39 29.354 - 29.394 USB, Beacon 29.352 USB
Sapphire 20 Apr 12:40:09 12:41:52 12° 258° (WSW) 12:43:35 437.095 MHz 1200 baud AX-25 AFSK
Saudisat 1A 20 Apr 12:45:22 12:49:13 28° 309° (NW) 12:53:06 436.775 MHz
FUNcube-1 20 Apr 13:03:31 13:07:15 30° 289° (WNW) 13:11:03 145.950 - 145.970 MHz USB
PANSAT 20 Apr 13:11:33 13:13:14 13° 196° (SSW) 13:14:56 not established
AO-27 20 Apr 13:31:55 13:33:07 11° 60° (ENE) 13:34:18 436.795 MHz FM
ITAMSAT 1 20 Apr 13:41:01 13:43:26 13° 62° (ENE) 13:45:50 435.822 SSB
Oscar 19 20 Apr 13:41:32 13:45:42 26° 67° (ENE) 13:49:54 437.125 CW, 437.150 USB
Oscar 16 20 Apr 13:49:33 13:54:05 33° 69° (ENE) 13:58:39 437.025 USB, Beacon 2401.1428
KITSAT 1 20 Apr 14:07:31 14:15:00 43° 251° (WSW) 14:22:25 435.175 FM
Uribyol 2 20 Apr 14:26:25 14:31:09 38° 70° (ENE) 14:35:55 436.500 FM
RS-15 20 Apr 14:33:12 14:41:24 23° 30° (NNE) 14:49:38 29.354 - 29.394 USB, Beacon 29.352 USB
Oscar 10/S400 20 Apr 14:47:47 16:05:56 22° 270° (W) 18:30:59 145.825 - 145.975 CW/USB, Beacon 145.810 USB
ISS 20 Apr 14:58:30 15:01:14 24° 131° (SE) 15:03:59 145.800 FM
Gurwin Techsat 1B 20 Apr 15:05:53 15:10:17 27° 67° (ENE) 15:14:41 435.225 FM
AO-27 20 Apr 15:06:38 15:11:50 89° 256° (WSW) 15:17:03 436.795 MHz FM
AO-Echo 20 Apr 15:13:15 15:18:31 83° 76° (ENE) 15:23:40 ?
ITAMSAT 1 20 Apr 15:17:07 15:22:17 72° 258° (WSW) 15:27:28 435.822 SSB
Oscar 19 20 Apr 15:20:12 15:24:51 35° 263° (W) 15:29:33 437.125 CW, 437.150 USB
Oscar 16 20 Apr 15:29:08 15:33:25 27° 264° (W) 15:37:45 437.025 USB, Beacon 2401.1428
SO-50 20 Apr 15:36:08 15:40:07 32° 113° (ESE) 15:44:07 436.795 FM
Uosat F 20 Apr 15:36:11 15:38:20 13° 62° (ENE) 15:40:30 435.120 FM
JAS-1B 20 Apr 15:38:19 15:44:47 28° 67° (ENE) 15:50:25 435.800 - 435.900 CW/SSB
AO-7 20 Apr 15:52:25 15:58:48 26° 57° (ENE) 16:05:10 29.400 - 29.500 MHz
TMSAT-1 20 Apr 15:52:31 15:57:38 53° 72° (ENE) 16:02:46 436.925 FM
Uribyol 2 20 Apr 16:06:42 16:10:43 23° 265° (W) 16:14:45 436.500 FM
OPAL 20 Apr 16:30:02 16:35:16 72° 104° (ESE) 16:40:27 ?
ISS 20 Apr 16:34:48 16:37:52 33° 327° (NNW) 16:40:56 145.800 FM
RS-15 20 Apr 16:45:06 16:56:05 72° 57° (ENE) 17:07:20 29.354 - 29.394 USB, Beacon 29.352 USB
Gurwin Techsat 1B 20 Apr 16:45:17 16:50:04 35° 263° (W) 16:54:54 435.225 FM
Uosat F 20 Apr 17:11:29 17:16:29 72° 257° (WSW) 17:21:31 435.120 FM
SO-50 20 Apr 17:16:57 17:20:41 25° 310° (NW) 17:24:27 436.795 FM
JAS-1B 20 Apr 17:27:05 17:35:08 53° 259° (WSW) 17:41:55 435.800 - 435.900 CW/SSB
TMSAT-1 20 Apr 17:34:26 17:37:50 17° 268° (W) 17:41:15 436.925 FM
AO-7 20 Apr 17:42:37 17:50:51 70° 255° (WSW) 17:59:08 29.400 - 29.500 MHz
UOSAT-12 20 Apr 17:52:21 17:56:37 43° 115° (ESE) 18:01:00 437.025 FM, 437.400 FM
OPAL 20 Apr 18:10:50 18:13:31 14° 300° (WNW) 18:16:11 ?
RS-15 20 Apr 18:58:42 19:07:26 29° 256° (WSW) 19:16:25 29.354 - 29.394 USB, Beacon 29.352 USB
Hamsat 20 Apr 19:11:37 19:15:48 80° 77° (ENE) 19:20:03 145.90 MHz
STRAND 1 20 Apr 19:12:08 19:14:30 13° 91° (E) 19:16:51 ?
JAS-2 20 Apr 19:30:10 19:35:38 42° 72° (ENE) 19:40:39 435.800 - 435.900 CW/SSB, 435.910 FM
UOSAT-12 20 Apr 19:33:27 19:36:57 21° 312° (NW) 19:40:32 437.025 FM, 437.400 FM
Saudisat 1A 20 Apr 19:35:00 19:37:44 16° 45° (NE) 19:40:28 436.775 MHz
AO-7 20 Apr 19:43:47 19:44:54 10° 272° (W) 19:46:02 29.400 - 29.500 MHz
SO-67 20 Apr 19:47:34 19:50:40 31° 73° (ENE) 19:53:47 435.3500 MHz FM
STRAND 1 20 Apr 20:49:03 20:54:05 63° 286° (WNW) 20:59:06 ?
HO-68 20 Apr 20:49:54 20:55:32 26° 61° (ENE) 21:01:10 435.675 MHz FM
Saudisat 1A 20 Apr 21:13:23 21:17:43 58° 243° (WSW) 21:21:59 436.775 MHz
JAS-2 20 Apr 21:16:22 21:20:50 22° 264° (W) 21:25:02 435.800 - 435.900 CW/SSB, 435.910 FM
SO-67 20 Apr 21:22:22 21:23:54 12° 267° (W) 21:25:27 435.3500 MHz FM
ISS 20 Apr 21:28:50 21:31:23 20° 27° (NNE) 21:33:55 145.800 FM
MaSat-1 20 Apr 22:17:16 22:20:16 75° 294° (WNW) 22:22:54 437.345 MHz
FUNcube-1 20 Apr 22:23:59 22:26:00 13° 66° (ENE) 22:28:01 145.950 - 145.970 MHz USB
Oscar 11 20 Apr 22:27:20 22:31:30 50° 74° (ENE) 22:35:41 145.825 FM, Beacon 2401.500 USB
HO-68 20 Apr 22:35:44 22:42:43 58° 258° (WSW) 22:49:46 435.675 MHz FM
ISS 20 Apr 23:05:03 23:08:20 54° 224° (SW) 23:11:36 145.800 FM
Sapphire 20 Apr 23:53:43 23:56:07 13° 103° (ESE) 23:58:32 437.095 MHz 1200 baud AX-25 AFSK
FUNcube-1 20 Apr 23:57:59 00:02:02 46° 261° (W) 00:06:03 145.950 - 145.970 MHz USB
Oscar 11 21 Apr 00:06:13 00:07:58 12° 269° (W) 00:09:43 145.825 FM, Beacon 2401.500 USB
SO-50 21 Apr 00:09:42 00:13:11 21° 48° (NE) 00:16:42 436.795 FM
PCSat 21 Apr 00:35:32 00:40:26 37° 110° (ESE) 00:45:22 145.825 MHz
Oscar 10/S400 21 Apr 01:09:21 01:12:22 10° 135° (SE) 01:15:32 145.825 - 145.975 CW/USB, Beacon 145.810 USB
Sapphire 21 Apr 01:33:27 01:38:51 73° 298° (WNW) 01:44:17 437.095 MHz 1200 baud AX-25 AFSK
SO-50 21 Apr 01:49:30 01:53:59 47° 244° (WSW) 01:58:30 436.795 FM
Oscar 16 21 Apr 02:04:45 02:07:12 13° 91° (E) 02:09:38 437.025 USB, Beacon 2401.1428
OPAL 21 Apr 02:08:13 02:10:03 12° 58° (ENE) 02:11:54 ?
PCSat 21 Apr 02:19:12 02:23:53 29° 307° (NW) 02:28:35 145.825 MHz
UOSAT-12 21 Apr 02:24:00 02:27:53 25° 49° (NE) 02:31:43 437.025 FM, 437.400 FM
KITSAT 1 21 Apr 02:38:25 02:45:36 36° 108° (ESE) 02:52:47 435.175 FM
Uribyol 2 21 Apr 02:42:16 02:45:23 16° 92° (E) 02:48:29 436.500 FM
Sapphire 21 Apr 03:21:23 03:23:14 12° 318° (NW) 03:25:05 437.095 MHz 1200 baud AX-25 AFSK
AO-27 21 Apr 03:21:58 03:26:47 38° 98° (E) 03:31:35 436.795 MHz FM
AO-Echo 21 Apr 03:23:18 03:27:26 29° 96° (E) 03:31:30 ?
Gurwin Techsat 1B 21 Apr 03:25:51 03:27:43 12° 90° (E) 03:29:35 435.225 FM
ITAMSAT 1 21 Apr 03:32:07 03:37:07 48° 100° (E) 03:42:05 435.822 SSB
Oscar 19 21 Apr 03:33:10 03:38:24 85° 285° (WNW) 03:43:36 437.125 CW, 437.150 USB
Oscar 16 21 Apr 03:41:48 03:46:58 65° 286° (WNW) 03:52:06 437.025 USB, Beacon 2401.1428
OPAL 21 Apr 03:43:11 03:48:12 81° 255° (WSW) 03:53:19 ?
UOSAT-12 21 Apr 04:03:46 04:08:08 38° 246° (WSW) 04:12:26 437.025 FM, 437.400 FM
TMSAT-1 21 Apr 04:10:57 04:15:14 25° 95° (E) 04:19:28 436.925 FM
Uribyol 2 21 Apr 04:20:06 04:25:09 55° 287° (WNW) 04:30:12 436.500 FM
KITSAT 1 21 Apr 04:32:57 04:40:44 49° 306° (NW) 04:48:35 435.175 FM
AO-27 21 Apr 05:02:00 05:06:03 24° 294° (WNW) 05:10:06 436.795 MHz FM
AO-Echo 21 Apr 05:02:13 05:06:06 25° 292° (WNW) 05:09:55 ?
Gurwin Techsat 1B 21 Apr 05:02:53 05:08:12 74° 285° (WNW) 05:13:28 435.225 FM
ITAMSAT 1 21 Apr 05:12:36 05:16:13 20° 295° (WNW) 05:19:50 435.822 SSB
JAS-1B 21 Apr 05:14:06 05:19:31 45° 100° (E) 05:25:17 435.800 - 435.900 CW/SSB
Uosat F 21 Apr 05:21:24 05:26:06 40° 99° (E) 05:30:47 435.120 FM
AO-7 21 Apr 05:46:27 05:54:23 46° 101° (E) 06:02:17 29.400 - 29.500 MHz
TMSAT-1 21 Apr 05:50:22 05:55:12 37° 290° (WNW) 06:00:01 436.925 FM
STRAND 1 21 Apr 06:26:08 06:29:24 17° 64° (ENE) 06:32:39 ?
KITSAT 1 21 Apr 06:34:52 06:38:24 13° 330° (NNW) 06:41:56 435.175 FM
MaSat-1 21 Apr 06:44:13 06:44:30 10° 59° (ENE) 06:44:47 437.345 MHz
Hamsat 21 Apr 07:00:33 07:03:25 17° 93° (E) 07:06:16 145.90 MHz
Uosat F 21 Apr 07:00:53 07:04:36 21° 294° (WNW) 07:08:18 435.120 FM
RS-15 21 Apr 07:05:32 07:16:33 57° 112° (ESE) 07:27:10 29.354 - 29.394 USB, Beacon 29.352 USB
JAS-1B 21 Apr 07:05:46 07:09:57 22° 295° (WNW) 07:14:16 435.800 - 435.900 CW/SSB
AO-7 21 Apr 07:39:31 07:46:57 38° 298° (WNW) 07:54:24 29.400 - 29.500 MHz
STRAND 1 21 Apr 08:03:09 08:08:08 53° 260° (W) 08:13:08 ?
MaSat-1 21 Apr 08:19:55 08:22:53 37° 248° (WSW) 08:26:23 437.345 MHz
JAS-2 21 Apr 08:24:34 08:29:50 45° 100° (E) 08:35:40 435.800 - 435.900 CW/SSB, 435.910 FM
Hamsat 21 Apr 08:35:29 08:39:30 37° 288° (WNW) 08:43:31 145.90 MHz
